Location: Fort Worth, Tx
(32.7431°N, 97.3695°W)
Time: 01:14:03
(UTC-04:00)

Vanguard 2 - Pass Details

Date: 01 March 2024
Orbit: 552 x 2916 km, 32.9° (Epoch: 24 April)

Event Time Altitude Azimuth Distance (km) Brightness Sun altitude
Rises 21:53:35 0° 275° (W) 4,432 12.5 -31.4°
Reaches altitude 10° 21:56:05 10° 275° (W) 3,713 11.9 -31.9°
Maximum altitude 22:06:27 89° 189° (S) 2,160 9.5 -34.0°
Enters shadow 22:09:53 61° 100° (E) 2,571 9.7 -34.7°
